Location: Allens Landing
(37.8284°N, 89.7284°W)
Time: 12:03:38
(UTC+00:00)

Vanguard 2 - Pass Details

Date: 15 December 2025
Orbit: 552 x 2898 km, 32.9° (Epoch: 13 January)

Event Time Altitude Azimuth Distance (km) Brightness Sun altitude
Exits shadow 10:01:38 13° 109° (ESE) 1,620 9.9 -35.8°
Drops below altitude 10° 10:02:12 10° 106° (ESE) 1,841 10.2 -35.7°
Sets 10:04:35 0° 99° (E) 2,822 11.5 -35.2°
